AirNav   Pilot Hours Calculator
 
 1099 users online  

X10 Belle Glade State Municipal Airport
Belle Glade, Florida, USA

GOING TO BELLE GLADE?


FAA INFORMATION EFFECTIVE 07 NOVEMBER 2019

Location

FAA Identifier: X10
Lat/Long: 26-41-53.4800N 080-39-36.8800W
26-41.891333N 080-39.614667W
26.6981889,-80.6602444
(estimated)
Elevation: 14 ft. / 4 m (estimated)
Variation: 03W (1985)
From city: 1 mile NE of BELLE GLADE, FL
Time zone: UTC -5 (UTC -4 during Daylight Saving Time)
Zip code: 33430

Airport Operations

Airport use: Open to the public
Activation date: 04/1940
Control tower: no
ARTCC: MIAMI CENTER
FSS: MIAMI FLIGHT SERVICE STATION
NOTAMs facility: MIA (NOTAM-D service available)
Attendance: UNATNDD
Wind indicator: lighted, WIND SOCK TORN OFF
Segmented circle: no
Lights: ACTVT LIRL RWY 09/27 -CTAF.

Airport Communications

CTAF: 122.9

Nearby radio navigation aids

VOR radial/distance  VOR name  Freq  Var
PHKr162/5.3PAHOKEE VOR/DME115.4000E
PBIr275/30.8PALM BEACH VORTAC115.7003W
LBVr100/39.9LA BELLE VORTAC110.4001E

 
NDB name  Hdg/Dist  Freq  Var  ID
UNITED239/21.540505WUTX ..- - -..-

Airport Services

Airframe service: NONE
Powerplant service: NONE
Bottled oxygen: NONE
Bulk oxygen: NONE

Runway Information

Runway 9/27

Dimensions: 3455 x 50 ft. / 1053 x 15 m
Surface: asphalt, in excellent condition
Runway edge lights: low intensity
RUNWAY 9  RUNWAY 27
Latitude: 26-41.891000N26-41.891667N
Longitude: 080-39.932167W080-39.297167W
Elevation: 14.0 ft.11.0 ft.
Traffic pattern: leftleft
Runway heading: 093 magnetic, 090 true273 magnetic, 270 true
Declared distances: TORA:3750 TODA:3750TORA:3750 TODA:3750
Markings: basic, in good conditionbasic, in good condition
Obstructions: 36 ft. tree, 915 ft. from runway, 20 ft. left of centerline, 20:1 slope to clear50 ft. pole, 1342 ft. from runway, 20 ft. left of centerline, 23:1 slope to clear

Airport Ownership and Management from official FAA records

Ownership: Publicly-owned
Owner: CITY OF BELLE GLADE
110 DR. MARTIN LUTHER KING JR. BLVD
BELLE GLADE, FL 33430-3900
Phone 561-996-0100
CONTACT PERSON: LOMAX HARRELLE 561-992-1601
Manager: LARRY TIBBS
110 DR. MARTIN LUTHER KING JR. BLVD
BELLE GLADE, FL 33430
Phone (561) 992-1610

Airport Operational Statistics

Aircraft based on the field: 11
Single engine airplanes: 10
Helicopters: 1
    
Aircraft operations: avg 34/week *
67% local general aviation
33% transient general aviation
* for 12-month period ending 12 January 2018

Additional Remarks

RY 09 NIGHT LNDGS NOT ADVISED DUE TO UNLGTD POWER LINES IN APCH.
BERM FULL LENGTH OF RY 113 FT N OF CNTRLN, RY 09/27.
FOR CD CTC PALM BEACH APCH AT 561-275-1430

Instrument Procedures

There are no published instrument procedures at X10.

Some nearby airports with instrument procedures:

KPHK - Palm Beach County Glades Airport (6 nm N)
2IS - Airglades Airport (21 nm W)
06FA - William P Gwinn Airport (22 nm NE)
F45 - North Palm Beach County General Aviation Airport (25 nm E)
KPBI - Palm Beach International Airport (30 nm E)
 
Loc | Ops | Rwys | IFR | FBO | Links
Com | Nav | Svcs | Stats | Notes

Reliance Aviation
AirBoss

 
Area around X10 (Belle Glade State Municipal Airport)
 
Road maps at: MapQuest Bing Google
 
Aerial photo
WARNING: Photo may not be current or correct
Aerial photo of X10 (Belle Glade State Municipal Airport)
Do you have a better or more recent aerial photo of Belle Glade State Municipal Airport that you would like to share? If so, please send us your photo.

 
Sectional chart

 
Airport distance calculator
Flying to Belle Glade State Municipal Airport? Find the distance to fly.

From to X10

Sunrise and sunset
Times for 12-Nov-2019
 Local
(UTC-5)
 Zulu
(UTC)
Morning civil twilight06:1711:17
Sunrise06:4111:41
Sunset17:3322:33
Evening civil twilight17:5722:57

Current date and time
Zulu (UTC)  12-Nov-2019 22:45:15
Local (UTC-5)  12-Nov-2019 17:45:15
 
METAR
KF45 
25nm E 
122235Z AUTO 32003KT 10SM CLR 25/18 A2991 RMK AO2 TSNO
KPBI 
30nm E 
122153Z 26005KT 10SM SCT041 SCT055 BKN250 28/17 A2989 RMK AO2 SLP120 T02780172
KLNA 
31nm E 
122235Z AUTO 00000KT 10SM CLR 27/21 A2989 RMK AO2 T02720206 PNO
KOBE 
35nm N 
122235Z AUTO 00000KT 10SM CLR 24/16 A2989 RMK AO2
KBCT 
36nm SE 
122147Z 14004KT 10SM SCT040 27/20 A2989
KSUA 
38nm NE 
122147Z 30007KT 7SM FEW025 28/15 A2990
KFXE 
39nm SE 
122153Z 13006KT 10SM FEW030 27/20 A2988 RMK AO2 SLP120 T02720200
KPMP 
40nm SE 
122153Z 17010KT 10SM FEW030 27/20 A2989 RMK AO2 SLP121 T02670200 $
KIMM 
43nm W 
122235Z AUTO 00000KT 10SM CLR 25/17 A2990 RMK AO2
KFLL 
47nm SE 
122153Z 14008KT 10SM FEW050 BKN250 27/21 A2988 RMK AO2 SLP116 T02670206
TAF
KPBI 
30nm E 
122113Z 1221/1318 22006KT P6SM FEW050 SCT110 FM130200 VRB03KT P6SM FEW100 FM130800 33008KT P6SM FEW035 SCT100 FM131400 02012KT P6SM VCSH SCT025 BKN040
KSUA 
38nm NE 
121745Z 1218/1318 26007KT P6SM VCSH SCT025 BKN045 FM130400 31006KT P6SM SCT030 SCT100 FM131200 02011G18KT P6SM VCSH SCT025 BKN035 FM131600 04014G21KT P6SM VCSH SCT020 BKN030
NOTAMs
Click for the latest NOTAMs
NOTAMs are issued by the DoD/FAA and will open in a separate window not controlled by AirNav.

 

 
 

Would you like to see your business listed on this page?

 If your business provides an interesting product or service to pilots, flight crews, aircraft, or users of the Belle Glade State Municipal Airport, you should consider listing it here.  To start the listing process, click on the button below
 
Add a business
 

Other Pages about Belle Glade State Municipal Airport

Update a link
 
Copyright © AirNav, LLC. All rights reserved. Privacy Policy  Contact